Flag for U.S.A. Weather past 2 weeks in Overland Park, Kansas, U.S.A.

Now
74 °F

Clear.


Feels Like: 77 °F
Forecast: 64 / 80 °F
Wind: 12 mph from North

Location: Johnson County Executive Airport

Current Time: Jul 27, 2014 at 11:22:29 PM

Latest Report: Jul 27, 2014 at 10:53 PM


Visibility: 10 mi

Pressure: 30.08 "Hg

Humidity: 57%

Dew point: 58 °F

Location of Overland ParkLocation

Historic Weather in Overland Park — Graph

°F

Overland Park temperature yesterday

Maximum temperature yesterday: 90 °F (at 5:53 PM)
Minimum temperature yesterday: 78 °F (at 6:53 AM)
Average temperature yesterday: 83 °F

Past Weeks' High & Low Weather Summary

 TemperatureHumidityPressure
High95 °F (Jul 25, 3:53 PM)100% (Jul 18, 6:53 AM)30.14 "Hg (Jul 18, 6:53 AM)
Low54 °F (Jul 16, 4:53 AM)29% (Jul 27, 4:53 PM)29.74 "Hg (Jul 25, 7:53 PM)
Average75 °F69%29.98 "Hg
* Reported Jul 12 8:53 PM — Jul 27 8:53 PM, Overland Park, Weather by CustomWeather, © 2014

Note: Actual official high and low records may vary slightly from our data, if they occured in-between our weather recording intervals... More about our weather records

Advertising

Overland Park weather history for previous 24 hours

 ConditionsComfort  
Time TempWeatherWind HumidityBarometerVisibility
8:53 PM
Jul 27
78 °FSunny.9 mph50%30.03 "Hg10 mi
7:53 PM82 °FSunny.13 mph43%30.03 "Hg10 mi
6:53 PM85 °FSunny.10 mph37%30.01 "Hg10 mi
5:53 PM87 °FSunny.14 mph31%30.01 "Hg10 mi
4:53 PM88 °FSunny.14 mph29%30.01 "Hg10 mi
3:53 PM87 °FSunny.15 mph31%30.01 "Hg10 mi
2:53 PM87 °FSunny.12 mph36%30.01 "Hg10 mi
1:53 PM87 °FSunny.15 mph35%30.01 "Hg10 mi
12:53 PM86 °FSunny.13 mph37%30.01 "Hg10 mi
11:53 AM82 °FSunny.12 mph58%30.02 "Hg10 mi
10:53 AM83 °FSunny.14 mph61%30.01 "Hg10 mi
9:53 AM82 °FPassing clouds.12 mph63%30.01 "Hg10 mi
8:53 AM80 °FSunny.6 mph76%29.99 "Hg10 mi
7:53 AM77 °FSunny.7 mph85%29.96 "Hg9 mi
6:53 AM76 °FClear.7 mph91%29.93 "Hg9 mi
5:53 AM77 °FClear.7 mph90%29.91 "Hg10 mi
4:53 AM78 °FClear.7 mph87%29.90 "Hg10 mi
3:53 AM78 °FClear.7 mph84%29.88 "Hg10 mi
2:53 AM79 °FClear.No wind79%29.85 "Hg10 mi
1:53 AM82 °FClear.6 mph72%29.85 "Hg10 mi
12:53 AM83 °FClear.8 mph70%29.83 "Hg10 mi
11:53 PM
Jul 26
83 °FClear.8 mph68%29.82 "Hg10 mi
Weather by CustomWeather, © 2014

See weather overviewHow to use our weather pages